Location: Days
(41.3591°N, 106.7339°W)
Time: 14:49:25
(UTC+00:00)

O/OREOS (USA 219) - Pass Details

Date: 03 July 2022
Orbit: 621 x 646 km, 72.0° (Epoch: 22 May)

Event Time Altitude Azimuth Distance (km) Brightness Sun altitude
Rises 07:58:37 0° 328° (NNW) 2,964 ? -24.8°
Reaches altitude 10° 08:01:04 10° 319° (NW) 2,050 ? -24.7°
Enters shadow 08:04:11 30° 282° (WNW) 1,169 ? -24.5°
